Location: Lombard
(41.8800°N, 88.0080°W)
Time: 13:34:08
(UTC-05:00)

A-11 Canister half - Pass Details

Date: 05 February 2023
Orbit: 1512 x 1687 km, 47.2° (Epoch: 20 March)

Event Time Altitude Azimuth Distance (km) Brightness Sun altitude
Rises 07:26:10 0° 175° (S) 4,893 12.1 3.6°
Reaches altitude 10° 07:31:13 10° 155° (SSE) 3,882 12.1 4.4°
Maximum altitude 07:36:11 15° 124° (ESE) 3,458 13.1 5.3°
Drops below altitude 10° 07:41:04 10° 93° (E) 3,822 12.5 6.1°
Sets 07:45:55 0° 72° (ENE) 4,775 12.3 6.9°
